Location: Kellogg
(38.0159°N, 90.0546°W)
Time: 08:48:25
(UTC+00:00)

A-11 Canister half - Visible Passes

Search period start: 19 September 2024 00:00
Search period end: 29 September 2024 00:00
Orbit: 1524 x 1684 km, 47.3° (Epoch: 18 September)

Date Brightness Start Highest point End Pass type
(mag) Time Alt. Az. Time Alt. Az. Time Alt. Az.
19 Sep 9.7 01:51:13 10° WNW 02:00:37 50° SW 02:07:18 21° SSE visible
19 Sep 11.1 04:01:51 10° WSW 04:04:04 11° WSW 04:05:37 10° SW visible
20 Sep 9.7 01:29:24 10° WNW 01:38:52 52° SW 01:47:10 15° SSE visible
20 Sep 11.0 03:39:00 10° W 03:42:21 12° WSW 03:45:29 10° SW visible
21 Sep 9.7 01:07:35 10° WNW 01:17:05 55° SW 01:26:50 10° SSE visible
21 Sep 11.0 03:16:29 10° W 03:20:39 13° WSW 03:24:51 10° SSW visible
22 Sep 9.6 00:45:46 10° WNW 00:55:19 58° SW 01:05:07 10° SSE visible
22 Sep 11.1 02:54:08 10° W 02:58:57 15° WSW 03:03:48 10° SSW visible
23 Sep 9.6 00:23:57 10° WNW 00:33:33 60° SW 00:43:23 10° SE visible
23 Sep 11.1 02:31:54 10° W 02:37:14 16° WSW 02:42:38 10° SSW visible
24 Sep 11.1 02:09:45 10° W 02:15:31 17° WSW 02:21:24 10° SSW visible
25 Sep 11.1 01:47:38 10° W 01:53:49 19° SW 02:00:05 10° SSW visible
26 Sep 11.1 01:25:34 10° W 01:32:05 20° SW 01:38:44 10° SSW visible
27 Sep 11.1 01:03:33 10° W 01:10:22 21° SW 01:17:20 10° S visible
28 Sep 11.1 00:41:33 10° W 00:48:39 23° SW 00:55:55 10° S visible
